{"data":{"norad_id":69589,"epoch":"2026-09-19T22:34:50.984832Z","epoch_age_seconds":77349,"freshness":"FRESH","line1":"1 69589U 26139A   26262.94086788  .00001285  00000+0  88796-4 0  9993","line2":"2 69589  52.9951 192.3288 0002409 247.0746 112.9991 15.12989045 14324","mean_motion":15.12989045,"eccentricity":0.0002409,"inclination_deg":52.9951,"raan_deg":192.3288,"arg_perigee_deg":247.0746,"mean_anomaly_deg":112.9991,"bstar":8.8796e-5,"rev_number":1432,"period_min":95.175837839593,"perigee_km":525.42693910588,"apogee_km":528.75387767124,"semimajor_km":6905.2274083886,"source":"CELESTRAK","updated_at":"2026-09-20T09:00:24.997299Z"}}